This is the latest recevied weather packets stored in our database for station/object K7VLL. If no packets are shown the sender has not sent any weather packets the latest 1 day(s).
| Time | Temp. | Humidity | Pressure | Rain* | Wind** | Luminosity | Snow |
|---|---|---|---|---|---|---|---|
| 1836274300 | 27.22° C | 45% | 1089.9 hPa | 0 mm | 0.45 m/s, 312° | 0 W/m² | - |
| 1778044911 | 18.33° C | 34% | 1090.8 hPa | 0 mm | 0.45 m/s, 69° | 0 W/m² | - |
| 1778043110 | 17.78° C | 35% | 1090.1 hPa | 0 mm | 0.89 m/s, 303° | 0 W/m² | - |
| 1778041308 | 18.33° C | 36% | 1089.9 hPa | 0 mm | 0.89 m/s, 244° | 0 W/m² | - |
| 1778039509 | 18.89° C | 34% | 1089.2 hPa | 0 mm | 0.45 m/s, 351° | 0 W/m² | - |
| 1778037708 | 19.44° C | 35% | 1088.9 hPa | 0 mm | 0.89 m/s, 259° | 0 W/m² | - |
| 1778035908 | 20° C | 33% | 1087.9 hPa | 0 mm | 2.68 m/s, 42° | 0 W/m² | - |
| 1778034107 | 20° C | 31% | 1087.4 hPa | 0 mm | 2.68 m/s, 18° | 0 W/m² | - |
| 1778032303 | 20.56° C | 29% | 1087.2 hPa | 0 mm | 2.24 m/s, 276° | 9 W/m² | - |
| 1778030501 | 21.67° C | 25% | 1087.1 hPa | 0 mm | 0.89 m/s, 352° | 28 W/m² | - |
| 1778028696 | 21.67° C | 25% | 1086.9 hPa | 0 mm | 0.89 m/s, 45° | 37 W/m² | - |
| 1778026891 | 22.78° C | 26% | 1086.7 hPa | 0 mm | 1.34 m/s, 45° | 123 W/m² | - |
| 1778025091 | 23.89° C | 25% | 1086.3 hPa | 0 mm | 3.13 m/s, 265° | 249 W/m² | - |
| 1778023286 | 23.89° C | 24% | 1086.2 hPa | 0 mm | 0.89 m/s, 301° | 341 W/m² | - |
| 1778021485 | 23.89° C | 26% | 1086.1 hPa | 0 mm | 2.68 m/s, 303° | 433 W/m² | - |
| 1778019683 | 23.89° C | 25% | 1086.5 hPa | 0 mm | 0.45 m/s, 129° | 511 W/m² | - |
| 1778017879 | 23.89° C | 26% | 1086.8 hPa | 0 mm | 1.79 m/s, 266° | 153 W/m² | - |
| 1778016078 | 24.44° C | 26% | 1087.1 hPa | 0 mm | 0.45 m/s, 187° | 655 W/m² | - |
| 1778014279 | 22.78° C | 33% | 1087.9 hPa | 0 mm | 0.89 m/s, 114° | 262 W/m² | - |
| 1778012476 | 22.22° C | 39% | 1088.2 hPa | 0 mm | 1.34 m/s, 193° | 687 W/m² | - |
| 1778010671 | 23.33° C | 37% | 1087.9 hPa | 0 mm | 2.68 m/s, 249° | 143 W/m² | - |
| 1778008871 | 23.33° C | 42% | 1088.3 hPa | 0 mm | 0 m/s | 722 W/m² | - |
| 1778007069 | 22.22° C | 45% | 1088.6 hPa | 0 mm | 0.45 m/s, 344° | 746 W/m² | - |
| 1778005267 | 21.11° C | 47% | 1089 hPa | 0 mm | 0.45 m/s, 262° | 860 W/m² | - |
| 1778003463 | 21.67° C | 48% | 1089.2 hPa | 0 mm | 0 m/s | 668 W/m² | - |
* Rain latest hour (hover to see other rain measurements)
** Current wind speed in m/s (hover to see current wind gust speed)